This demonstration page uses our WeatherBlox Daily Observations layout. Learn more.

Left ArrowRight Arrow

31.31129, -92.44514

Hourly Observations for December 25, 2019

Temp ( °F °C ) Dew Point ( °F °C ) Humidity (%) Winds ( mph kmh ) Pressure ( in mb ) Visibility ( mi km ) Precip ( " mm )
12:53 am 00:53 Clear 51 10.6 48 8.9 89 89 Calm 29.98 1015 10 16 0.00 0.00
1:53 am 01:53 Clear 49 9.4 47 8.3 93 93 Calm 29.98 1015 10 16 0.00 0.00
2:53 am 02:53 Clear 48 8.9 46 7.8 93 93 NW 3 6 30.00 1016 9 14 0.00 0.00
3:53 am 03:53 Clear 47 8.3 46 7.8 97 97 SSE 5 7 29.98 1015 10 16 0.00 0.00
4:53 am 04:53 Clear 47 8.3 45 7.2 93 93 Calm 29.99 1016 9 14 0.00 0.00
5:53 am 05:53 Clear 47 8.3 45 7.2 93 93 Calm 29.99 1016 10 16 0.00 0.00
6:53 am 06:53 Clear 46 7.8 45 7.2 96 96 ESE 5 7 29.99 1016 10 16 0.00 0.00
7:53 am 07:53 Sunny 50 10 48 8.9 93 93 Calm 30.00 1016 7 11 0.00 0.00
8:53 am 08:53 Mostly Sunny 55 12.8 52 11.1 90 90 SE 3 6 30.03 1017 10 16 0.00 0.00
9:53 am 09:53 Cloudy 60 15.6 54 12.2 80 80 SE 7 11 30.04 1017 10 16 0.00 0.00
10:34 am 10:34 Cloudy 61 16.1 54 12.2 78 78 S 5 7 30.03 1017 10 16 0.00 0.00
10:53 am 10:53 Cloudy 63 17.2 56 13.3 78 78 S 5 7 30.03 1017 10 16 0.00 0.00
11:53 am 11:53 Cloudy 65 18.3 56 13.3 73 73 Calm 30.01 1016 10 16 0.00 0.00
12:53 pm 12:53 Cloudy 65 18.3 56 13.3 73 73 W 3 6 29.98 1015 10 16 0.00 0.00
1:53 pm 13:53 Cloudy 66 18.9 57 13.9 73 73 S 5 7 29.98 1015 10 16 0.00 0.00
2:53 pm 14:53 Cloudy 66 18.9 57 13.9 73 73 Calm 29.97 1015 10 16 0.00 0.00
3:53 pm 15:53 Cloudy 65 18.3 57 13.9 76 76 Calm 29.98 1015 10 16 0.00 0.00
4:53 pm 16:53 Cloudy 65 18.3 57 13.9 76 76 Calm 29.98 1015 10 16 0.00 0.00
5:45 pm 17:45 Cloudy 63 17.2 58 14.4 84 84 Calm 29.98 1015 10 16 0.00 0.00
5:53 pm 17:53 Cloudy 64 17.8 57 13.9 78 78 Calm 29.99 1016 10 16 0.00 0.00
6:53 pm 18:53 Cloudy 63 17.2 57 13.9 81 81 E 3 6 30.00 1016 10 16 0.00 0.00
7:53 pm 19:53 Cloudy 62 16.7 57 13.9 84 84 ESE 5 7 30.00 1016 10 16 0.00 0.00
8:53 pm 20:53 Clear 59 15 57 13.9 93 93 Calm 30.02 1017 10 16 0.00 0.00
9:14 pm 21:14 Mostly Cloudy 58 14.4 55 12.8 90 90 Calm 30.01 1016 10 16 0.00 0.00
9:53 pm 21:53 Mostly Cloudy 58 14.4 55 12.8 90 90 ESE 5 7 30.03 1017 10 16 0.00 0.00
10:05 pm 22:05 Partly Cloudy 57 13.9 55 12.8 93 93 ESE 5 7 30.02 1017 10 16 0.00 0.00
10:53 pm 22:53 Clear 55 12.8 54 12.2 96 96 E 3 6 30.03 1017 8 13 0.00 0.00
11:40 pm 23:40 Clear with Mist and Fog 56 13.3 56 13.3 100 100 Calm 30.02 1017 2 2 0.00 0.00
11:43 pm 23:43 Mostly Cloudy with Fog 55 12.8 55 12.8 100 100 Calm 30.02 1017 1 1 0.00 0.00
11:53 pm 23:53 Mostly Cloudy with Fog 54 12.2 53 11.7 97 97 Calm 30.03 1017 0 0 0.00 0.00

Powered by AerisWeather